EW4652 Weather Reports


Display with metric or nautical units.
time (UTC)temp
F
wind
direction
speed
MPH
gust
MPH
rain 1hr
in
rain 24hr
in
rain mn
in
humidity
%
barometer
mb
20260905160050 73 88 5.0 10.0 0.00 0.01 0.01 96 1016.8
20260905154547 73 55 4.0 7.0 0.00 0.01 0.01 96 1016.9
20260905153047 73 69 5.0 10.0 0.00 0.01 0.01 96 1016.7
20260905151544 73 50 4.0 9.0 0.00 0.01 0.01 96 1016.6
20260905150043 73 49 4.0 8.0 0.00 0.01 0.01 96 1016.5
20260905144540 73 40 3.0 10.0 0.00 0.01 0.01 96 1016.3
20260905143037 73 41 5.0 10.0 0.00 0.01 0.01 96 1016.0
20260905141535 73 74 5.0 9.0 0.00 0.01 0.01 96 1015.7
20260905140035 73 45 5.0 9.0 0.00 0.01 0.01 96 1015.7
20260905134530 73 54 5.0 8.0 0.00 0.01 0.01 96 1015.4
20260905133035 73 40 4.0 9.0 0.00 0.01 0.01 96 1015.3
20260905131528 73 49 4.0 9.0 0.00 0.01 0.01 96 1015.0
20260905130024 73 42 4.0 7.0 0.00 0.01 0.01 96 1015.0
20260905124520 73 44 3.0 6.0 0.00 0.01 0.01 96 1014.6
20260905123019 72 52 4.0 7.0 0.00 0.01 0.01 96 1014.4
20260905121518 72 41 0.0 3.0 0.00 0.01 0.01 96 1014.3
20260905120016 72 40 1.0 6.0 0.00 0.01 0.01 96 1014.4
20260905114513 72 46 3.0 6.0 0.01 0.01 0.01 96 1014.4
20260905113012 72 25 3.0 6.0 0.01 0.01 0.01 96 1014.2
20260905111509 72 60 3.0 6.0 0.01 0.01 0.01 96 1013.9
20260905110009 72 46 2.0 4.0 0.01 0.01 0.01 96 1014.0
20260905104508 71 48 2.0 5.0 0.00 0.00 0.00 96 1013.9
20260905103009 72 32 1.0 4.0 0.00 0.00 0.00 96 1014.1
20260905101507 72 26 3.0 6.0 0.00 0.00 0.00 96 1014.1
20260905100005 72 62 3.0 6.0 0.00 0.00 0.00 96 1013.6
20260905094505 72 71 3.0 6.0 0.00 0.00 0.00 96 1013.4
20260905093004 72 53 3.0 7.0 0.00 0.00 0.00 96 1013.4
20260905091504 72 68 4.0 6.0 0.00 0.00 0.00 95 1013.6
20260905090003 73 42 2.0 6.0 0.00 0.00 0.00 96 1013.6
20260905084502 73 71 2.0 5.0 0.00 0.00 0.00 95 1013.6
20260905083122 73 95 2.0 4.0 0.00 0.00 0.00 95 1013.6
20260905081610 74 62 2.0 4.0 0.00 0.00 0.00 95 1013.8
20260905080058 74 67 3.0 5.0 0.00 0.00 0.00 95 1013.9
20260905074558 74 51 3.0 6.0 0.00 0.00 0.00 95 1013.9
20260905073057 74 53 3.0 6.0 0.00 0.00 0.00 96 1013.9
20260905071554 73 54 1.0 3.0 0.00 0.00 0.00 95 1013.8
20260905070053 73 54 2.0 4.0 0.00 0.00 0.00 95 1013.8
20260905064609 73 41 2.0 4.0 0.00 0.00 0.00 95 1013.7
20260905063053 73 41 0.0 2.0 0.00 0.00 0.00 95 1013.7
20260905061548 73 41 1.0 3.0 0.00 0.00 0.00 95 1013.7
20260905060046 73 40 2.0 3.0 0.00 0.00 0.00 94 1013.6
20260905054605 73 40 1.0 3.0 0.00 0.00 0.00 95 1013.7
20260905053035 72 40 1.0 4.0 0.00 0.00 0.00 95 1013.6
20260905051531 72 41 1.0 4.0 0.00 0.00 0.00 95 1013.5
20260905050027 71 24 3.0 6.0 0.00 0.00 0.00 96 1013.4
20260905044524 70 178 0.0 2.0 0.00 0.00 0.00 94 1013.3
20260905043023 70 178 0.0 1.0 0.00 0.00 0.00 94 1013.3
20260905041526 70 178 1.0 2.0 0.00 0.00 0.00 94 1013.2
20260905040021 71 178 1.0 2.0 0.00 0.00 0.00 94 1013.1
20260905034521 70 178 0.0 2.0 0.00 0.00 0.00 94 1013.2
20260905033019 71 178 1.0 2.0 0.00 0.00 0.00 93 1013.2
20260905031518 72 178 1.0 2.0 0.00 0.00 0.00 93 1013.2
20260905030024 72 178 0.0 2.0 0.00 0.00 0.00 93 1013.2
20260905024515 73 178 0.0 2.0 0.00 0.00 0.00 93 1013.1
20260905023015 74 178 0.0 2.0 0.00 0.00 0.00 93 1013.1
20260905021514 74 178 1.0 3.0 0.00 0.00 0.00 93 1013.1
20260905020012 75 178 0.0 1.0 0.00 0.00 0.00 93 1013.0
20260905014512 75 178 2.0 3.0 0.00 0.00 0.00 92 1012.6
20260905013014 76 178 0.0 1.0 0.00 0.00 0.00 91 1012.6
20260905011513 77 178 1.0 2.0 0.00 0.00 0.00 90 1012.4
20260905010014 78 178 0.0 2.0 0.00 0.00 0.00 88 1012.2
20260905004507 79 178 1.0 3.0 0.00 0.00 0.00 87 1012.2
20260905003007 81 178 1.0 2.0 0.00 0.00 0.00 85 1012.4
20260905001506 82 178 1.0 3.0 0.00 0.00 0.00 84 1012.5
20260905000105 83 180 2.0 5.0 0.00 0.00 0.00 82 1012.4
20260904234504 85 174 3.0 6.0 0.00 0.00 0.00 81 1012.3
20260904233004 85 193 3.0 7.0 0.00 0.00 0.00 80 1012.3
20260904231504 86 184 5.0 7.0 0.00 0.00 0.00 78 1012.3
20260904230005 86 180 3.0 6.0 0.00 0.00 0.00 79 1012.4
20260904224501 88 220 3.0 7.0 0.00 0.00 0.00 73 1012.4
20260904223100 88 212 3.0 6.0 0.00 0.00 0.00 73 1012.2
20260904223002 88 216 2.0 6.0 0.00 0.00 0.00 74 1012.2
20260904221606 88 223 3.0 7.0 0.00 0.00 0.00 72 1012.0
20260904214559 88 206 4.0 8.0 0.00 0.00 0.00 74 1011.8
20260904213057 86 209 1.0 8.0 0.00 0.00 0.00 80 1011.9
20260904211558 87 211 3.0 7.0 0.00 0.00 0.00 76 1011.8
20260904210057 87 204 5.0 7.0 0.00 0.00 0.00 75 1011.8
20260904204553 87 205 3.0 6.0 0.00 0.00 0.00 76 1011.7
20260904203057 88 226 5.0 9.0 0.00 0.00 0.00 74 1011.5
20260904201556 86 235 5.0 11.0 0.00 0.00 0.00 75 1011.6
20260904200109 87 209 7.0 10.0 0.00 0.00 0.00 72 1011.9
20260904194552 89 217 5.0 9.0 0.00 0.00 0.00 70 1011.8
20260904193050 89 174 6.0 10.0 0.00 0.00 0.00 69 1011.7
20260904191550 89 187 5.0 11.0 0.00 0.00 0.00 72 1011.4
20260904190051 89 177 5.0 8.0 0.00 0.00 0.00 73 1011.5
20260904184547 89 190 5.0 10.0 0.00 0.00 0.00 68 1011.5
20260904183046 89 192 4.0 9.0 0.00 0.00 0.00 70 1011.6
20260904181547 89 196 2.0 7.0 0.00 0.00 0.00 70 1011.6
20260904180047 88 217 3.0 6.0 0.00 0.00 0.00 71 1011.7
20260904174542 88 242 3.0 6.0 0.00 0.00 0.00 70 1011.9
20260904173055 88 259 1.0 4.0 0.00 0.00 0.00 67 1011.8
20260904171545 88 270 1.0 6.0 0.00 0.00 0.00 68 1011.9
20260904170039 88 286 2.0 4.0 0.00 0.00 0.00 69 1011.9
20260904164531 86 290 1.0 7.0 0.00 0.00 0.00 70 1011.9
20260904163030 85 265 3.0 8.0 0.00 0.00 0.00 74 1011.8
20260904161528 85 279 4.0 8.0 0.00 0.00 0.00 73 1011.7